Live-Position
3D-Globus wird geladen...
Über Starlink 1578
Group: 3 satellites
Beschreibung wird geladen...
Nächste Überflüge
Passes for default location (London). Set your location on the main map for personalized predictions.
Höhenverlauf
Loading altitude history...
No altitude history available
Zweizeiliger Elementsatz
1 46082U 20055BH 26120.50026137 .00010834 00000-0 38700-3 0 9994
2 46082 53.1491 220.7596 0001219 93.1883 266.9257 15.29373431317164
Epoch: 30. Apr. 2026 •
Age: 5 hours
Aktueller Status
Höhe 479.1 km
Geschwindigkeit 7.63 km/s
Subsatellitenpunkt 31.94°N,
106.35°W
Startdatum 7. Aug. 2020
Alter 5.7 years
Typ internet
Startgruppe
Falcon 9 •
Launch 9 •
36 satellites
Starlink 1522
46027
Starlink 1523 46028
Starlink 1526 46029
Starlink 1555 46032
Starlink 1556 46033
Starlink 1557 46034
Starlink 1558 46035
Starlink 1560 46036
Starlink 1567 46038
Starlink 1569 46039
Starlink 1582 46043
Starlink 1591 46045
Starlink 1524 46047
Starlink 1527 46048
Starlink 1540 46051
Starlink 1541 46052
Starlink 1543 46053
Starlink 1548 46054
Starlink 1554 46055
Starlink 1564 46058
...and 15 more
Technische Details
Klassifizierung Payload
Masse 260.00 kg
Trockenmasse 248.00 kg
Gesamtmasse 260.00 kg
Länge 0.20 m
Durchmesser 2.80 m
Spannweite 9.00 m
Form Box + pan
Hersteller SPXS
Bus-Typ Starlink
Phasenstatus In Orbit
Besitzer/Staat SPXS/US
Most Searched
Loading...